[[{"header":{"parameterUnit":"m.s-1","parameterCategory":2,"la1":30.2991,"la2":30.254,"lo1":-89.0895,"lo2":-89.0444,"dy":0.0017,"dx":0.0017,"nx":28,"ny":28,"refTime":"2025-04-03T21:00:00:Z","depth":"0","parameterNumber":2,"parameterNumberName":"U-component_of_CURRENTS"},"data":[0,0,0,0,0,0,0,0,0,0,0,0,0,0,0,0,0,0,0,0,0,0,0,0,0,0,0,0,0,0,0,0,0,0,0,0,0,0,0,0,0,0,0,0,0,0,0,0,0,0,0,0,0,0,0,0,0,0,0.1187,0.1187,0,0.1157,0.1156,0.1156,0.1144,0.1144,0.1144,0.1144,0.112,0.1119,0.1118,0,0,0,0,0,0,0,0,0,0,0,0,0,0.1204,0.1204,0.1187,0.1187,0.1187,0.1157,0.1156,0.1156,0.1144,0.1144,0.1144,0.1144,0.112,0.1119,0.1118,0,0,0,0,0,0,0,0,0,0,0,0,0,0.1186,0.1204,0.1187,0.1178,0.1177,0.1157,0.1156,0.1155,0.1143,0.1144,0.1144,0.1144,0.1121,0.112,0.1118,0.1104,0,0,0.1114,0.1114,0,0,0,0,0,0,0,0,0.1187,0.1186,0.118,0.1179,0.1178,0.1156,0.1153,0.1139,0.1143,0.1155,0.1144,0.1145,0.1133,0.1131,0.1122,0.1103,0.1102,0.1114,0.1114,0.1113,0.1113,0,0,0,0,0,0,0,0.1189,0.1187,0.1174,0.118,0.1178,0.1165,0.1163,0.115,0.1142,0.1154,0.1153,0.1152,0.1133,0.1124,0.1122,0.1102,0.1114,0.1113,0.1112,0.1112,0.1095,0.1096,0,0,0,0,0,0,0.1197,0.1188,0.1175,0.1173,0.1185,0.1165,0.1162,0.1161,0.1142,0.1139,0.1152,0.1152,0.1126,0.1123,0.1121,0.1132,0.1113,0.1112,0.1111,0.1095,0.1095,0.1096,0,0,0,0,0,0,0.1197,0.1196,0.1176,0.1181,0.1178,0.1165,0.1163,0.116,0.1154,0.114,0.1138,0.1149,0.1126,0.1123,0.1111,0.113,0.1111,0.111,0.1095,0.1095,0.1095,0.1136,0,0,0,0,0,0,0.1198,0.1196,0.1196,0.1182,0.1178,0.1166,0.1163,0.116,0.1154,0.1153,0.1137,0.1135,0.1126,0.1113,0.111,0.1128,0.1109,0.1094,0.1095,0.1095,0.1135,0.1138,0.1141,0,0,0,0,0,0.1199,0.1195,0.1197,0.1195,0.1179,0.1166,0.1163,0.1154,0.1153,0.1149,0.1139,0.1135,0.1115,0.1112,0.1108,0.1127,0.1094,0.1095,0.1095,0.1133,0.1137,0.1141,0,0,0,0,0,0,0.12,0.1194,0.1195,0.1189,0.1182,0.1165,0.116,0.1155,0.1143,0.1143,0.1131,0.1128,0.1128,0.1116,0.1113,0.1123,0.1107,0.1107,0.1137,0.1141,0.1144,0.1162,0.1108,0,0,0,0,0,0.1202,0.1199,0.1192,0.1188,0.1185,0.1174,0.1168,0.1163,0.1151,0.1146,0.1136,0.1128,0.1127,0.1125,0.1116,0.1115,0.1139,0.1126,0.113,0.1133,0.1144,0.1195,0.1205,0.1098,0.1098,0.1098,0,0,0.12,0.1197,0.1195,0.1188,0.1181,0.1178,0.117,0.1162,0.1164,0.1145,0.1142,0.1136,0.1128,0.1131,0.1131,0.1125,0.1176,0.1133,0.1136,0.1146,0.1197,0.1208,0.1218,0.1098,0.1098,0.1098,0,0,0.1192,0.1194,0.1189,0.1187,0.1182,0.1178,0.1179,0.1167,0.1167,0.1159,0.1156,0.1164,0.1144,0.1156,0.1157,0.1172,0.119,0.1166,0.12,0.125,0.126,0.1269,0.1321,0.1335,0.117,0.1171,0.1171,0,0.1189,0.1186,0.1185,0.1183,0.1184,0.1182,0.1181,0.118,0.1166,0.1178,0.1163,0.1173,0.1163,0.1193,0.1197,0.1183,0.1213,0.1187,0.1257,0.1266,0.1275,0.1326,0.1341,0.1173,0.1172,0.1172,0.1172,0,0.1179,0.118,0.1177,0.1179,0.1182,0.1179,0.1185,0.1192,0.1194,0.1198,0.1221,0.1214,0.1228,0.1226,0.1213,0.127,0.1273,0.1256,0.1252,0.1289,0.134,0.1354,0.1176,0.1175,0.1174,0.1174,0,0,0.1153,0.1168,0.1165,0.1175,0.1182,0.1183,0.1201,0.122,0.1246,0.1243,0.1282,0.1281,0.1292,0.1294,0.1291,0.1329,0.1412,0.1319,0.132,0.1381,0.1533,0.1562,0.158,0.141,0.1413,0.1415,0.1549,0,0.1142,0.1146,0.1157,0.1166,0.1171,0.1193,0.1213,0.1236,0.1258,0.1295,0.1315,0.134,0.1314,0.133,0.1367,0.1399,0.145,0.1378,0.148,0.1484,0.1513,0.1597,0.1579,0.17,0.1563,0.1565,0.1567,0,0.1117,0.1131,0.1138,0.1176,0.1181,0.1191,0.1243,0.126,0.1319,0.1341,0.1384,0.14,0.146,0.1427,0.1526,0.1483,0.1516,0.1539,0.1544,0.1568,0.1539,0.1638,0.1731,0.1694,0.1588,0.1587,0.1585,0,0.1092,0.1114,0.1126,0.1134,0.1174,0.1195,0.122,0.1274,0.1308,0.1379,0.1422,0.1482,0.1529,0.1577,0.1625,0.1585,0.174,0.169,0.1752,0.1754,0.1758,0.1757,0.1837,0.1774,0.1774,0.1773,0.1773,0,0.1068,0.1075,0.1118,0.1123,0.1152,0.1186,0.1228,0.1267,0.1341,0.1397,0.1445,0.1512,0.157,0.1656,0.1677,0.178,0.1791,0.1791,0.1804,0.1771,0.177,0.1751,0.1702,0.1778,0.1777,0.1776,0.1775,0,0.1026,0.1051,0.1069,0.1119,0.1135,0.1155,0.1223,0.1263,0.1336,0.1418,0.1447,0.1565,0.1686,0.1752,0.1855,0.1865,0.1898,0.1967,0.193,0.1937,0.1938,0.1891,0.1888,0.1816,0.2063,0.2065,0.2066,0,0.1001,0.1006,0.1055,0.1074,0.1094,0.1133,0.1166,0.1243,0.1295,0.1448,0.1494,0.1647,0.175,0.1933,0.2001,0.2093,0.1982,0.2107,0.2022,0.1974,0.193,0.1795,0.1722,0.2047,0.2048,0.2049,0.205,0,0.0964,0.0982,0.1006,0.1042,0.1074,0.1109,0.1168,0.1208,0.1315,0.1405,0.1545,0.1647,0.1861,0.1976,0.2114,0.2149,0.2009,0.2129,0.2093,0.1953,0.1797,0.1722,0.1918,0.2058,0.2057,0.2057,0.2056,0.2056,0.0937,0.0946,0.0983,0.1011,0.1047,0.1082,0.1099,0.1183,0.1266,0.1392,0.1527,0.1665,0.1894,0.2103,0.2134,0.2193,0.2089,0.214,0.2099,0.1975,0.1868,0.2091,0.2229,0.2229,0.2229,0.2229,0.2229,0,0.0903,0.0926,0.0955,0.0989,0.1005,0.1039,0.1098,0.1116,0.1194,0.1341,0.1464,0.1705,0.1887,0.2043,0.2217,0.2175,0.2027,0.2112,0.1913,0.1849,0.2092,0.2054,0.2144,0.2144,0.2144,0.2144,0.2144,0.2144,0.0892,0.0904,0.092,0.0935,0.0957,0.096,0.0978,0.1024,0.111,0.1251,0.1382,0.1519,0.1804,0.2093,0.2174,0.2122,0.1926,0.1869,0.179,0.1977,0.1975,0.1973,0.1928,0.199,0.199,0.1484,0.148,0.1478]},{"header":{"parameterUnit":"m.s-1","parameterCategory":2,"la1":30.2991,"la2":30.254,"lo1":-89.0895,"lo2":-89.0444,"dy":0.0017,"dx":0.0017,"nx":28,"ny":28,"refTime":"2025-04-03T21:00:00:Z","depth":"0","parameterNumber":3,"parameterNumberName":"V-component_of_CURRENTS"},"data":[0,0,0,0,0,0,0,0,0,0,0,0,0,0,0,0,0,0,0,0,0,0,0,0,0,0,0,0,0,0,0,0,0,0,0,0,0,0,0,0,0,0,0,0,0,0,0,0,0,0,0,0,0,0,0,0,0,0,-0.0226,-0.0227,0,-0.0279,-0.028,-0.0281,-0.0311,-0.0312,-0.0312,-0.0312,-0.0372,-0.0373,-0.0375,0,0,0,0,0,0,0,0,0,0,0,0,0,-0.0168,-0.0168,-0.0226,-0.0227,-0.0227,-0.0279,-0.028,-0.0281,-0.0311,-0.0312,-0.0312,-0.0312,-0.0371,-0.0373,-0.0375,0,0,0,0,0,0,0,0,0,0,0,0,0,-0.0204,-0.0169,-0.0226,-0.0249,-0.0252,-0.0279,-0.028,-0.0281,-0.0311,-0.0312,-0.0312,-0.0312,-0.0371,-0.0373,-0.0375,-0.0385,0,0,-0.0382,-0.0383,0,0,0,0,0,0,0,0,-0.0202,-0.0206,-0.0245,-0.0248,-0.0251,-0.0289,-0.0281,-0.0316,-0.0311,-0.0289,-0.0312,-0.0312,-0.0345,-0.0349,-0.0358,-0.0387,-0.039,-0.0382,-0.0383,-0.0384,-0.0385,0,0,0,0,0,0,0,-0.0199,-0.0204,-0.0247,-0.0246,-0.0249,-0.0263,-0.0268,-0.0288,-0.0315,-0.0291,-0.0293,-0.0299,-0.0346,-0.0356,-0.036,-0.0391,-0.0382,-0.0384,-0.0385,-0.0386,-0.0419,-0.0418,0,0,0,0,0,0,-0.0192,-0.0202,-0.0245,-0.0249,-0.0226,-0.0263,-0.0269,-0.0276,-0.0315,-0.0321,-0.0299,-0.03,-0.0352,-0.0357,-0.0362,-0.0364,-0.0384,-0.0386,-0.0387,-0.0419,-0.0418,-0.0418,0,0,0,0,0,0,-0.0191,-0.0195,-0.0243,-0.0226,-0.0233,-0.0264,-0.0272,-0.0277,-0.0287,-0.0321,-0.0327,-0.0302,-0.0353,-0.0359,-0.0374,-0.0367,-0.0387,-0.0389,-0.042,-0.0419,-0.0418,-0.0376,0,0,0,0,0,0,-0.0189,-0.0195,-0.0196,-0.0226,-0.0234,-0.0254,-0.0272,-0.0278,-0.029,-0.0293,-0.0326,-0.0332,-0.0353,-0.037,-0.0376,-0.0371,-0.0391,-0.042,-0.0419,-0.0418,-0.0378,-0.0374,-0.0371,0,0,0,0,0,-0.0186,-0.0186,-0.0195,-0.0201,-0.0235,-0.0254,-0.0259,-0.0282,-0.029,-0.0291,-0.0311,-0.0331,-0.0369,-0.0372,-0.0378,-0.0374,-0.0421,-0.0419,-0.0418,-0.038,-0.0375,-0.0371,0,0,0,0,0,0,-0.0161,-0.019,-0.0201,-0.0209,-0.0228,-0.0259,-0.0263,-0.0278,-0.0296,-0.0297,-0.0327,-0.0334,-0.0345,-0.0363,-0.0366,-0.038,-0.0397,-0.0397,-0.0365,-0.0361,-0.0357,-0.0341,-0.0393,0,0,0,0,0,-0.0155,-0.0163,-0.0191,-0.0197,-0.0205,-0.0233,-0.0243,-0.0258,-0.0279,-0.0287,-0.0309,-0.033,-0.0347,-0.0356,-0.0375,-0.0384,-0.0397,-0.0384,-0.038,-0.0377,-0.0368,-0.0382,-0.0378,-0.0415,-0.0415,-0.0415,0,0,-0.0147,-0.0164,-0.0168,-0.0192,-0.0208,-0.0214,-0.0239,-0.0251,-0.0253,-0.029,-0.0297,-0.032,-0.0346,-0.0355,-0.0361,-0.0369,-0.0374,-0.0376,-0.0373,-0.0365,-0.038,-0.0377,-0.0374,-0.0414,-0.0414,-0.0414,0,0,-0.0132,-0.0148,-0.0148,-0.0161,-0.0183,-0.0198,-0.0199,-0.0227,-0.0236,-0.0248,-0.0272,-0.0287,-0.0316,-0.033,-0.0342,-0.0328,-0.0355,-0.0336,-0.0304,-0.0318,-0.0315,-0.0313,-0.0326,-0.0325,-0.0333,-0.0333,-0.0333,0,-0.0118,-0.0125,-0.015,-0.0152,-0.0156,-0.0187,-0.0183,-0.0197,-0.0226,-0.0226,-0.0244,-0.0276,-0.0303,-0.0306,-0.0303,-0.0319,-0.0331,-0.032,-0.0313,-0.0311,-0.0309,-0.0324,-0.0323,-0.0331,-0.0331,-0.0331,-0.0332,0,-0.0104,-0.0109,-0.0108,-0.012,-0.0126,-0.0129,-0.0149,-0.0155,-0.017,-0.0185,-0.0194,-0.0229,-0.0246,-0.0258,-0.0279,-0.0276,-0.029,-0.0307,-0.0323,-0.0303,-0.032,-0.032,-0.0328,-0.0329,-0.0329,-0.033,0,0,-0.0068,-0.0093,-0.0091,-0.0088,-0.0108,-0.0108,-0.0108,-0.0113,-0.0103,-0.0135,-0.0125,-0.016,-0.018,-0.0193,-0.0222,-0.0234,-0.024,-0.0262,-0.0264,-0.0273,-0.0268,-0.0273,-0.0274,-0.0256,-0.0256,-0.0256,-0.0285,0,-0.0046,-0.0043,-0.0059,-0.0045,-0.0042,-0.0062,-0.0054,-0.0062,-0.0074,-0.0073,-0.0107,-0.0114,-0.0155,-0.0162,-0.0181,-0.0223,-0.0238,-0.023,-0.0288,-0.029,-0.0295,-0.0274,-0.0243,-0.0266,-0.0285,-0.0286,-0.0286,0,-0.0021,-0.0022,-0.001,-0.0004,-0.0002,0.0004,0.0019,0.0019,0.001,0.0001,-0.0016,-0.0044,-0.0068,-0.0107,-0.0164,-0.0157,-0.0206,-0.0242,-0.0244,-0.0261,-0.0295,-0.029,-0.0266,-0.0353,-0.0286,-0.0286,-0.0286,0,0.0018,0.0019,0.0032,0.0031,0.003,0.0042,0.0044,0.0043,0.0056,0.0045,0.0054,0.0016,0.0002,-0.0061,-0.0139,-0.0152,-0.0199,-0.0231,-0.0281,-0.0282,-0.0273,-0.0274,-0.0336,-0.0268,-0.0268,-0.0268,-0.0268,0,0.0049,0.0064,0.0052,0.006,0.0093,0.0078,0.0112,0.011,0.0115,0.0141,0.0093,0.011,0.0014,-0.0027,-0.0111,-0.0189,-0.0182,-0.0266,-0.0285,-0.0258,-0.0257,-0.0346,-0.0411,-0.0269,-0.0269,-0.0269,-0.0269,0,0.0087,0.0075,0.0095,0.01,0.0108,0.013,0.0151,0.0177,0.0174,0.0207,0.0206,0.0182,0.0134,0.0037,-0.0059,-0.0143,-0.0284,-0.0259,-0.0219,-0.0233,-0.0365,-0.0429,-0.0531,-0.0606,-0.0318,-0.0318,-0.0318,0,0.0105,0.0114,0.0128,0.0147,0.015,0.0177,0.02,0.0203,0.0233,0.0258,0.0284,0.0253,0.0253,0.0113,-0.0032,-0.0169,-0.0283,-0.0252,-0.0275,-0.0359,-0.0445,-0.0501,-0.0562,-0.025,-0.0249,-0.0249,-0.0249,0,0.0142,0.0143,0.0158,0.0189,0.0217,0.0251,0.0284,0.0316,0.0332,0.0372,0.0422,0.0427,0.0309,0.021,0.0016,-0.01,-0.0326,-0.0251,-0.0345,-0.0398,-0.0456,-0.0541,-0.025,-0.0246,-0.0246,-0.0246,-0.0247,-0.0247,0.0173,0.0189,0.0203,0.0237,0.027,0.0319,0.0351,0.0404,0.0466,0.054,0.054,0.0593,0.0439,0.0195,0.0009,-0.0276,-0.0317,-0.0356,-0.0427,-0.0477,-0.0548,-0.025,-0.0265,-0.0266,-0.0266,-0.0266,-0.0266,0,0.0206,0.022,0.0251,0.0287,0.0326,0.0338,0.0405,0.0449,0.0534,0.0643,0.0704,0.0718,0.0487,0.0227,-0.0145,-0.0384,-0.0512,-0.0524,-0.0593,-0.0651,-0.0378,-0.0372,-0.0401,-0.0401,-0.0401,-0.04,-0.04,-0.04,0.0225,0.0255,0.0264,0.0324,0.0353,0.0407,0.0446,0.0528,0.0619,0.0779,0.0881,0.094,0.0821,0.0132,-0.0377,-0.0546,-0.0763,-0.0789,-0.0922,-0.0716,-0.0706,-0.0696,-0.0704,-0.0802,-0.0802,-0.1157,-0.1161,-0.1163]}],[{"header":{"parameterUnit":"m.s-1","parameterCategory":2,"la1":30.2991,"la2":30.254,"lo1":-89.0895,"lo2":-89.0444,"dy":0.0017,"dx":0.0017,"nx":28,"ny":28,"refTime":"2025-04-03T21:00:00:Z","depth":"2","parameterNumber":2,"parameterNumberName":"U-component_of_CURRENTS"},"data":[0,0,0,0,0,0,0,0,0,0,0,0,0,0,0,0,0,0,0,0,0,0,0,0,0,0,0,0,0,0,0,0,0,0,0,0,0,0,0,0,0,0,0,0,0,0,0,0,0,0,0,0,0,0,0,0,0,0,0.1252,0.1252,0,0.1224,0.1223,0.1223,0.1211,0.1211,0.1211,0.1212,0.1189,0.1188,0.1187,0,0,0,0,0,0,0,0,0,0,0,0,0,0.1267,0.1267,0.1252,0.1252,0.1252,0.1224,0.1223,0.1223,0.1211,0.1211,0.1211,0.1212,0.1189,0.1188,0.1187,0,0,0,0,0,0,0,0,0,0,0,0,0,0.1251,0.1267,0.1252,0.1244,0.1243,0.1224,0.1223,0.1223,0.1211,0.1211,0.1211,0.1212,0.119,0.1188,0.1187,0.1175,0,0,0.1184,0.1183,0,0,0,0,0,0,0,0,0.1252,0.125,0.1245,0.1244,0.1243,0.1222,0.122,0.1207,0.1211,0.1222,0.1212,0.1212,0.1201,0.1199,0.1191,0.1174,0.1173,0.1184,0.1183,0.1182,0.1182,0,0,0,0,0,0,0,0.1253,0.1251,0.124,0.1245,0.1244,0.1231,0.1229,0.1218,0.1209,0.1221,0.122,0.1219,0.1201,0.1192,0.1191,0.1172,0.1184,0.1183,0.1182,0.1182,0.1168,0.1169,0,0,0,0,0,0,0.126,0.1252,0.1241,0.1239,0.125,0.1231,0.1229,0.1228,0.1209,0.1207,0.1219,0.1218,0.1194,0.1192,0.119,0.1202,0.1182,0.1181,0.1181,0.1168,0.1168,0.1169,0,0,0,0,0,0,0.1261,0.1259,0.1242,0.1246,0.1243,0.1231,0.1229,0.1227,0.1221,0.1208,0.1206,0.1216,0.1194,0.1192,0.1181,0.12,0.1181,0.118,0.1168,0.1168,0.1169,0.1208,0,0,0,0,0,0,0.1261,0.126,0.126,0.1246,0.1243,0.1233,0.1229,0.1226,0.122,0.122,0.1204,0.1203,0.1194,0.1183,0.118,0.1198,0.1179,0.1167,0.1168,0.1168,0.1207,0.121,0.1213,0,0,0,0,0,0.1262,0.1259,0.126,0.1259,0.1244,0.1233,0.123,0.1221,0.122,0.1216,0.1207,0.1203,0.1186,0.1182,0.1179,0.1197,0.1167,0.1168,0.1168,0.1205,0.121,0.1213,0,0,0,0,0,0,0.1262,0.1257,0.1258,0.1254,0.1247,0.1232,0.1226,0.1222,0.121,0.1211,0.12,0.1197,0.1198,0.1187,0.1183,0.1195,0.1179,0.1179,0.1208,0.1212,0.1215,0.1232,0.1178,0,0,0,0,0,0.1264,0.1262,0.1256,0.1252,0.125,0.1239,0.1233,0.1229,0.1218,0.1213,0.1204,0.1197,0.1197,0.1196,0.1188,0.1188,0.1211,0.1199,0.1203,0.1206,0.1216,0.1268,0.1277,0.1171,0.1171,0.1171,0,0,0.1261,0.126,0.1258,0.1252,0.1245,0.1243,0.1236,0.1228,0.1231,0.1212,0.121,0.1205,0.1199,0.1203,0.1203,0.1197,0.1249,0.1206,0.1209,0.1219,0.127,0.128,0.129,0.1172,0.1172,0.1172,0,0,0.1254,0.1256,0.1252,0.1251,0.1246,0.1244,0.1244,0.1233,0.1233,0.1227,0.1224,0.1233,0.1215,0.1228,0.123,0.1246,0.1263,0.124,0.1273,0.1322,0.1332,0.1341,0.1392,0.1405,0.1244,0.1244,0.1244,0,0.1251,0.1249,0.1248,0.1246,0.1249,0.1247,0.1246,0.1246,0.1234,0.1246,0.1231,0.1243,0.1234,0.1265,0.127,0.1257,0.1286,0.1259,0.1329,0.1338,0.1347,0.1397,0.1411,0.1246,0.1246,0.1245,0.1245,0,0.1241,0.1243,0.1241,0.1244,0.1247,0.1245,0.1252,0.126,0.1261,0.1267,0.1291,0.1284,0.13,0.1298,0.1286,0.1343,0.1344,0.1328,0.1324,0.1361,0.141,0.1424,0.1249,0.1248,0.1247,0.1247,0,0,0.1215,0.1232,0.1229,0.124,0.1248,0.125,0.1269,0.1289,0.1316,0.1313,0.1352,0.1353,0.1363,0.1366,0.1364,0.1401,0.1482,0.139,0.1392,0.145,0.1601,0.1626,0.1643,0.148,0.1483,0.1485,0.1615,0,0.1205,0.121,0.1222,0.1233,0.1239,0.1261,0.1282,0.1306,0.1328,0.1365,0.1386,0.1411,0.1386,0.1401,0.1437,0.147,0.1519,0.1449,0.1549,0.1552,0.1578,0.166,0.1474,0.1577,0.1629,0.1631,0.1633,0,0.1181,0.1195,0.1204,0.1244,0.1249,0.126,0.1313,0.1331,0.139,0.1411,0.1454,0.147,0.1529,0.1497,0.1595,0.1552,0.1584,0.1606,0.1612,0.1632,0.1603,0.1546,0.16,0.1656,0.1654,0.1653,0.1651,0,0.1155,0.1179,0.1192,0.1201,0.1243,0.1264,0.129,0.1344,0.1378,0.1448,0.149,0.155,0.1596,0.1644,0.169,0.1651,0.1803,0.1755,0.1813,0.1814,0.1675,0.1662,0.1838,0.1838,0.1838,0.1837,0.1837,0,0.1132,0.114,0.1184,0.119,0.1219,0.1254,0.1296,0.1335,0.1409,0.1464,0.1512,0.1578,0.1636,0.172,0.1741,0.1841,0.1853,0.1851,0.1863,0.1684,0.1671,0.1743,0.173,0.1842,0.1841,0.184,0.1839,0,0.109,0.1116,0.1135,0.1187,0.1203,0.1222,0.129,0.133,0.1402,0.1483,0.1512,0.1628,0.1746,0.1812,0.1913,0.1923,0.1995,0.2022,0.1816,0.1804,0.1958,0.1945,0.2108,0.211,0.2112,0.2114,0.2115,0,0.1065,0.1071,0.1121,0.1139,0.116,0.1199,0.1231,0.1308,0.136,0.1511,0.1556,0.1706,0.1803,0.1982,0.2011,0.2092,0.2091,0.1978,0.1873,0.1997,0.1992,0.1976,0.1961,0.1699,0.1696,0.1695,0.1693,0,0.1029,0.1046,0.1071,0.1106,0.1139,0.1174,0.1232,0.1272,0.1378,0.1465,0.1602,0.1698,0.1871,0.1892,0.2012,0.2017,0.1948,0.1949,0.2144,0.1669,0.1624,0.1615,0.1611,0.1677,0.1679,0.168,0.1681,0.1681,0.1002,0.1011,0.1048,0.1075,0.1111,0.1146,0.1162,0.1247,0.1329,0.145,0.1568,0.1672,0.1743,0.1853,0.183,0.1815,0.1949,0.185,0.1849,0.1851,0.1791,0.1753,0.1819,0.1821,0.1823,0.1825,0.1827,0,0.0979,0.099,0.1019,0.1052,0.1078,0.1101,0.116,0.1188,0.1267,0.1392,0.1498,0.1473,0.1515,0.1584,0.1538,0.1579,0.1483,0.1516,0.1353,0.1374,0.1391,0.1299,0.12,0.1198,0.1196,0.1194,0,0,0.0969,0.0986,0.1003,0.102,0.1031,0.1044,0.1062,0.1118,0.1198,0.1279,0.1327,0.146,0.1557,0.1357,0.1343,0.1262,0.1293,0.121,0.1718,0.1548,0.1561,0.1602,0.1489,0,0,0,0,0]},{"header":{"parameterUnit":"m.s-1","parameterCategory":2,"la1":30.2991,"la2":30.254,"lo1":-89.0895,"lo2":-89.0444,"dy":0.0017,"dx":0.0017,"nx":28,"ny":28,"refTime":"2025-04-03T21:00:00:Z","depth":"2","parameterNumber":3,"parameterNumberName":"V-component_of_CURRENTS"},"data":[0,0,0,0,0,0,0,0,0,0,0,0,0,0,0,0,0,0,0,0,0,0,0,0,0,0,0,0,0,0,0,0,0,0,0,0,0,0,0,0,0,0,0,0,0,0,0,0,0,0,0,0,0,0,0,0,0,0,-0.0249,-0.025,0,-0.0304,-0.0304,-0.0305,-0.0335,-0.0335,-0.0336,-0.0336,-0.0396,-0.0398,-0.0399,0,0,0,0,0,0,0,0,0,0,0,0,0,-0.0191,-0.0191,-0.0249,-0.025,-0.0251,-0.0303,-0.0304,-0.0305,-0.0335,-0.0335,-0.0336,-0.0336,-0.0396,-0.0398,-0.0399,0,0,0,0,0,0,0,0,0,0,0,0,0,-0.0227,-0.0192,-0.0249,-0.0272,-0.0275,-0.0303,-0.0304,-0.0305,-0.0335,-0.0335,-0.0336,-0.0336,-0.0395,-0.0397,-0.04,-0.041,0,0,-0.0407,-0.0408,0,0,0,0,0,0,0,0,-0.0225,-0.023,-0.0268,-0.0271,-0.0274,-0.0313,-0.0306,-0.0341,-0.0335,-0.0312,-0.0336,-0.0336,-0.0369,-0.0373,-0.0383,-0.0413,-0.0416,-0.0407,-0.0408,-0.0409,-0.041,0,0,0,0,0,0,0,-0.0223,-0.0228,-0.0271,-0.0269,-0.0272,-0.0286,-0.0291,-0.0313,-0.0339,-0.0314,-0.0317,-0.0323,-0.037,-0.0381,-0.0385,-0.0417,-0.0407,-0.0409,-0.041,-0.0411,-0.0446,-0.0446,0,0,0,0,0,0,-0.0215,-0.0225,-0.0269,-0.0272,-0.0249,-0.0287,-0.0293,-0.03,-0.0339,-0.0345,-0.0323,-0.0324,-0.0377,-0.0382,-0.0387,-0.039,-0.0409,-0.0411,-0.0412,-0.0446,-0.0446,-0.0445,0,0,0,0,0,0,-0.0214,-0.0219,-0.0267,-0.025,-0.0257,-0.0288,-0.0296,-0.0301,-0.031,-0.0345,-0.0351,-0.0326,-0.0377,-0.0384,-0.0399,-0.0393,-0.0412,-0.0414,-0.0447,-0.0446,-0.0446,-0.0404,0,0,0,0,0,0,-0.0212,-0.0218,-0.0219,-0.0249,-0.0258,-0.0279,-0.0296,-0.0302,-0.0314,-0.0316,-0.035,-0.0356,-0.0378,-0.0395,-0.0401,-0.0397,-0.0416,-0.0448,-0.0447,-0.0446,-0.0406,-0.0402,-0.0399,0,0,0,0,0,-0.0209,-0.0209,-0.0218,-0.0224,-0.0259,-0.0279,-0.0284,-0.0306,-0.0314,-0.0316,-0.0336,-0.0355,-0.0395,-0.0397,-0.0404,-0.04,-0.0448,-0.0447,-0.0446,-0.0408,-0.0403,-0.0399,0,0,0,0,0,0,-0.0184,-0.0213,-0.0224,-0.0232,-0.0252,-0.0284,-0.0287,-0.0303,-0.032,-0.0321,-0.0352,-0.0359,-0.0371,-0.0389,-0.0391,-0.0407,-0.0423,-0.0424,-0.0392,-0.0388,-0.0384,-0.0367,-0.0418,0,0,0,0,0,-0.0178,-0.0186,-0.0215,-0.0221,-0.0229,-0.0257,-0.0267,-0.0282,-0.0303,-0.0312,-0.0334,-0.0356,-0.0373,-0.0383,-0.0402,-0.0412,-0.0425,-0.0412,-0.0409,-0.0406,-0.0396,-0.041,-0.0406,-0.0442,-0.0442,-0.0442,0,0,-0.017,-0.0187,-0.0191,-0.0216,-0.0232,-0.0239,-0.0263,-0.0276,-0.0278,-0.0315,-0.0323,-0.0346,-0.0372,-0.0382,-0.0389,-0.0397,-0.0402,-0.0404,-0.0401,-0.0393,-0.0408,-0.0405,-0.0402,-0.0442,-0.0442,-0.0442,0,0,-0.0155,-0.0171,-0.0172,-0.0185,-0.0207,-0.0223,-0.0224,-0.0253,-0.0262,-0.0275,-0.0298,-0.0314,-0.0344,-0.0359,-0.037,-0.0358,-0.0384,-0.0366,-0.0334,-0.0348,-0.0345,-0.0342,-0.0355,-0.0354,-0.0363,-0.0363,-0.0363,0,-0.0141,-0.015,-0.0174,-0.0177,-0.0182,-0.0212,-0.0209,-0.0224,-0.0253,-0.0254,-0.0271,-0.0304,-0.0331,-0.0335,-0.0332,-0.0349,-0.036,-0.0349,-0.0343,-0.034,-0.0339,-0.0352,-0.0352,-0.0361,-0.0361,-0.0361,-0.0361,0,-0.0129,-0.0134,-0.0134,-0.0147,-0.0154,-0.0157,-0.0178,-0.0183,-0.0199,-0.0214,-0.0223,-0.0258,-0.0276,-0.0288,-0.0309,-0.0307,-0.032,-0.0337,-0.0352,-0.0332,-0.0348,-0.0348,-0.0358,-0.0359,-0.0359,-0.036,0,0,-0.0094,-0.012,-0.0118,-0.0115,-0.0137,-0.0137,-0.0138,-0.0144,-0.0133,-0.0165,-0.0156,-0.0192,-0.0211,-0.0224,-0.0253,-0.0265,-0.0269,-0.0292,-0.0294,-0.0301,-0.0297,-0.0301,-0.0302,-0.0286,-0.0286,-0.0286,-0.0313,0,-0.0073,-0.0072,-0.0089,-0.0075,-0.0074,-0.0093,-0.0086,-0.0094,-0.0106,-0.0105,-0.0138,-0.0146,-0.0186,-0.0193,-0.0212,-0.0253,-0.0268,-0.026,-0.0317,-0.0318,-0.0322,-0.0301,-0.0296,-0.0319,-0.0313,-0.0313,-0.0313,0,-0.0051,-0.0052,-0.0042,-0.0036,-0.0034,-0.0028,-0.0013,-0.0014,-0.0023,-0.0032,-0.0048,-0.0076,-0.0099,-0.0138,-0.0194,-0.0187,-0.0236,-0.027,-0.0273,-0.0289,-0.0322,-0.0338,-0.032,-0.0314,-0.0314,-0.0314,-0.0314,0,-0.0012,-0.0013,-0.0,-0.0001,-0.0003,0.0009,0.0011,0.001,0.0022,0.0013,0.0022,-0.0016,-0.0028,-0.0091,-0.0168,-0.0181,-0.0227,-0.0258,-0.0307,-0.0308,-0.032,-0.0322,-0.0295,-0.0295,-0.0295,-0.0295,-0.0295,0,0.0017,0.0032,0.002,0.0028,0.006,0.0045,0.0079,0.0077,0.0082,0.0109,0.0061,0.0078,-0.0016,-0.0057,-0.0139,-0.0216,-0.0209,-0.0292,-0.0311,-0.0305,-0.0306,-0.0316,-0.0318,-0.0296,-0.0296,-0.0296,-0.0295,0,0.0056,0.0043,0.0063,0.0068,0.0075,0.0097,0.0118,0.0144,0.0141,0.0174,0.0174,0.015,0.0103,0.0008,-0.0086,-0.017,-0.0251,-0.0283,-0.0268,-0.0285,-0.0333,-0.0333,-0.034,-0.034,-0.0341,-0.0341,-0.0341,0,0.0073,0.0082,0.0096,0.0114,0.0118,0.0144,0.0168,0.0171,0.02,0.0225,0.0252,0.0222,0.0218,0.008,-0.0069,-0.0206,-0.0231,-0.03,-0.0327,-0.0317,-0.0336,-0.0335,-0.0334,-0.033,-0.033,-0.033,-0.033,0,0.011,0.0111,0.0126,0.0158,0.0185,0.0219,0.0252,0.0283,0.0298,0.0335,0.0384,0.0385,0.0264,0.0137,-0.0058,-0.0158,-0.0279,-0.0305,-0.0294,-0.0316,-0.0309,-0.0327,-0.0326,-0.0331,-0.0331,-0.033,-0.033,-0.033,0.0142,0.0158,0.0172,0.0206,0.0239,0.0286,0.0319,0.0354,0.0408,0.0444,0.0463,0.045,0.0322,0.0072,-0.0076,-0.0259,-0.0264,-0.0344,-0.0344,-0.0343,-0.0334,-0.0327,-0.035,-0.035,-0.035,-0.035,-0.035,0,0.0169,0.0189,0.022,0.0256,0.0286,0.0306,0.0372,0.0388,0.0445,0.0478,0.0505,0.039,0.0258,0.0102,-0.0164,-0.0309,-0.0326,-0.0359,-0.0349,-0.0348,-0.0348,-0.0338,-0.0356,-0.0357,-0.0357,-0.0357,0,0,0.0186,0.0214,0.0223,0.0277,0.0311,0.035,0.0387,0.0418,0.0439,0.0465,0.046,0.0445,0.0285,0.01,-0.0084,-0.0227,-0.0262,-0.0259,-0.0244,-0.0213,-0.021,-0.0333,-0.0316,0,0,0,0,0]}],[{"header":{"parameterUnit":"m.s-1","parameterCategory":2,"la1":30.2991,"la2":30.254,"lo1":-89.0895,"lo2":-89.0444,"dy":0.0017,"dx":0.0017,"nx":28,"ny":28,"refTime":"2025-04-03T21:00:00:Z","depth":"4","parameterNumber":2,"parameterNumberName":"U-component_of_CURRENTS"},"data":[0,0,0,0,0,0,0,0,0,0,0,0,0,0,0,0,0,0,0,0,0,0,0,0,0,0,0,0,0,0,0,0,0,0,0,0,0,0,0,0,0,0,0,0,0,0,0,0,0,0,0,0,0,0,0,0,0,0,0.1052,0.1052,0,0.1086,0.1086,0.1086,0.1118,0.1119,0.1119,0.112,0.1173,0.1173,0.1174,0,0,0,0,0,0,0,0,0,0,0,0,0,0.0994,0.0995,0.1051,0.1052,0.1053,0.1086,0.1086,0.1086,0.1118,0.1119,0.112,0.112,0.1172,0.1173,0.1174,0,0,0,0,0,0,0,0,0,0,0,0,0,0.1021,0.0995,0.1051,0.1074,0.1076,0.1086,0.1086,0.1087,0.1118,0.1119,0.112,0.112,0.1172,0.1173,0.1175,0.1167,0,0,0.1179,0.1179,0,0,0,0,0,0,0,0,0.102,0.1023,0.107,0.1072,0.1075,0.11,0.1085,0.1115,0.1118,0.11,0.112,0.1121,0.115,0.1154,0.1156,0.1169,0.1172,0.1179,0.118,0.118,0.1181,0,0,0,0,0,0,0,0.1018,0.1022,0.1064,0.107,0.1073,0.1075,0.108,0.1091,0.112,0.1102,0.1105,0.1111,0.1152,0.1154,0.1157,0.1172,0.1179,0.118,0.1181,0.1181,0.1238,0.1238,0,0,0,0,0,0,0.1017,0.102,0.1062,0.1065,0.105,0.1076,0.1081,0.109,0.1119,0.1125,0.111,0.1112,0.1152,0.1156,0.1159,0.1207,0.118,0.1181,0.1182,0.1237,0.1238,0.1239,0,0,0,0,0,0,0.1016,0.1021,0.1061,0.1044,0.105,0.1076,0.1086,0.109,0.1117,0.1125,0.1131,0.1135,0.1152,0.1157,0.1185,0.1207,0.1182,0.1183,0.1236,0.1237,0.1238,0.1267,0,0,0,0,0,0,0.1014,0.102,0.1038,0.1044,0.1051,0.1084,0.1085,0.109,0.1118,0.1122,0.1148,0.1152,0.1153,0.1183,0.1186,0.1209,0.1184,0.1235,0.1237,0.1238,0.1265,0.1269,0.1272,0,0,0,0,0,0.1012,0.103,0.1038,0.1044,0.1071,0.1085,0.1089,0.1109,0.1119,0.1135,0.1149,0.1153,0.1194,0.1185,0.1189,0.1212,0.1235,0.1236,0.1238,0.1264,0.1268,0.1272,0,0,0,0,0,0,0.1016,0.1036,0.1045,0.107,0.1085,0.1092,0.1113,0.1121,0.1144,0.1154,0.116,0.1165,0.1196,0.1199,0.1189,0.1231,0.1216,0.1218,0.1234,0.1238,0.1242,0.1246,0.1186,0,0,0,0,0,0.1024,0.1047,0.1058,0.1082,0.1091,0.1105,0.1119,0.1129,0.1144,0.1157,0.1172,0.1188,0.1201,0.1217,0.1226,0.1251,0.1261,0.1269,0.1272,0.1275,0.1281,0.1311,0.1318,0.1244,0.1244,0.1244,0,0,0.1034,0.1048,0.1063,0.1086,0.11,0.1113,0.1116,0.1142,0.1155,0.1158,0.1191,0.1201,0.1209,0.1234,0.1249,0.1244,0.1303,0.1277,0.128,0.1284,0.1313,0.132,0.1327,0.1245,0.1245,0.1244,0,0,0.1052,0.1077,0.1096,0.1108,0.1132,0.1138,0.115,0.1167,0.1183,0.1207,0.1211,0.1238,0.126,0.127,0.1276,0.1305,0.1316,0.1312,0.134,0.1369,0.1375,0.1381,0.1407,0.1415,0.1318,0.1319,0.1319,0,0.1064,0.1086,0.1104,0.1118,0.113,0.1151,0.1164,0.1179,0.1204,0.1219,0.1225,0.1264,0.1275,0.1302,0.1314,0.1315,0.1332,0.1323,0.1374,0.1379,0.1385,0.1411,0.1419,0.132,0.132,0.132,0.132,0,0.1082,0.1106,0.1119,0.1143,0.1158,0.1177,0.1192,0.1217,0.1238,0.1251,0.1289,0.1303,0.133,0.1337,0.1338,0.1381,0.1382,0.1371,0.1364,0.1394,0.1419,0.1428,0.1322,0.1322,0.1321,0.1321,0,0,0.1083,0.1124,0.1129,0.1142,0.1172,0.1182,0.1212,0.1238,0.1263,0.1293,0.1326,0.1353,0.1372,0.1381,0.1388,0.1416,0.1473,0.1417,0.1418,0.1445,0.1543,0.1457,0.1457,0.1475,0.1476,0.1477,0.1547,0,0.1091,0.1119,0.1138,0.1165,0.1177,0.1204,0.1227,0.1256,0.1286,0.1325,0.1351,0.1387,0.1384,0.1409,0.1437,0.1465,0.1495,0.1455,0.1509,0.151,0.143,0.1464,0.1482,0.1553,0.1555,0.1556,0.1557,0,0.1091,0.1112,0.1138,0.1173,0.1182,0.1205,0.1248,0.1272,0.1326,0.1353,0.1396,0.142,0.1474,0.1464,0.1533,0.1511,0.1534,0.155,0.1552,0.1466,0.1438,0.1515,0.1572,0.1571,0.157,0.1569,0.1568,0,0.1065,0.1107,0.113,0.1141,0.1185,0.1208,0.1238,0.1286,0.1314,0.1381,0.1418,0.147,0.1514,0.155,0.1591,0.1573,0.1661,0.1636,0.1578,0.1573,0.1617,0.161,0.1684,0.1684,0.1684,0.1684,0.1684,0,0.1047,0.1067,0.1125,0.1135,0.1168,0.1202,0.1244,0.1282,0.1343,0.1381,0.1438,0.1475,0.154,0.1593,0.1616,0.1626,0.1685,0.159,0.1586,0.1628,0.1621,0.1623,0.1616,0.1686,0.1686,0.1685,0.1685,0,0.1006,0.1045,0.1074,0.1133,0.1156,0.1179,0.1248,0.1275,0.1343,0.1398,0.1426,0.1505,0.1569,0.1621,0.1688,0.1651,0.1673,0.1661,0.1717,0.1714,0.1559,0.1552,0.1596,0.1593,0.1591,0.1589,0.1588,0,0.0983,0.0997,0.1068,0.1091,0.1122,0.1169,0.12,0.1268,0.1297,0.1402,0.1421,0.1512,0.1557,0.1578,0.164,0.1676,0.1657,0.1655,0.1587,0.1559,0.1551,0.1547,0.1542,0.1585,0.1584,0.1583,0.1583,0,0.0942,0.0979,0.1006,0.1059,0.1098,0.1132,0.1184,0.1197,0.1275,0.135,0.1381,0.1415,0.1483,0.1523,0.1565,0.1585,0.1646,0.1633,0.1636,0.1572,0.1546,0.1539,0.1537,0.1576,0.1577,0.1577,0.1578,0,0.0917,0.0929,0.0979,0.1014,0.1066,0.1084,0.1112,0.1143,0.1179,0.1281,0.1293,0.1387,0.1465,0.1478,0.152,0.1531,0.1503,0.1447,0.146,0.1469,0.1395,0.1341,0.131,0,0,0,0,0,0.0886,0.0899,0.0932,0.0967,0.1015,0.1046,0.11,0.1127,0.12,0.1189,0.1233,0.1286,0.1333,0.1384,0.1372,0.1482,0.1522,0.1463,0.1466,0.1536,0.1544,0.1469,0,0,0,0,0,0,0.0868,0.09,0.0913,0.0925,0.0941,0.0984,0.1015,0.106,0.1051,0.1129,0.1158,0.122,0.1286,0.1333,0.1353,0.137,0.1348,0.1523,0.152,0.1531,0.1538,0.1545,0.1471,0,0,0,0,0]},{"header":{"parameterUnit":"m.s-1","parameterCategory":2,"la1":30.2991,"la2":30.254,"lo1":-89.0895,"lo2":-89.0444,"dy":0.0017,"dx":0.0017,"nx":28,"ny":28,"refTime":"2025-04-03T21:00:00:Z","depth":"4","parameterNumber":3,"parameterNumberName":"V-component_of_CURRENTS"},"data":[0,0,0,0,0,0,0,0,0,0,0,0,0,0,0,0,0,0,0,0,0,0,0,0,0,0,0,0,0,0,0,0,0,0,0,0,0,0,0,0,0,0,0,0,0,0,0,0,0,0,0,0,0,0,0,0,0,0,-0.0048,-0.0048,0,-0.0093,-0.0093,-0.0093,-0.0093,-0.0093,-0.0092,-0.0092,-0.0136,-0.0138,-0.0139,0,0,0,0,0,0,0,0,0,0,0,0,0,-0.0015,-0.0016,-0.0048,-0.0048,-0.0049,-0.0092,-0.0093,-0.0094,-0.0093,-0.0093,-0.0092,-0.0091,-0.0136,-0.0138,-0.014,0,0,0,0,0,0,0,0,0,0,0,0,0,-0.0041,-0.0016,-0.0048,-0.0054,-0.0056,-0.0092,-0.0093,-0.0094,-0.0093,-0.0093,-0.0092,-0.0091,-0.0135,-0.0137,-0.014,-0.0172,0,0,-0.0148,-0.0149,0,0,0,0,0,0,0,0,-0.0039,-0.0042,-0.0053,-0.0054,-0.0055,-0.0087,-0.0098,-0.012,-0.0094,-0.0078,-0.0092,-0.0091,-0.0121,-0.0124,-0.0134,-0.0174,-0.0176,-0.0148,-0.0149,-0.015,-0.0151,0,0,0,0,0,0,0,-0.0038,-0.004,-0.0065,-0.0054,-0.0055,-0.0074,-0.0076,-0.0102,-0.0103,-0.008,-0.008,-0.0086,-0.0121,-0.0131,-0.0135,-0.0176,-0.0148,-0.015,-0.0152,-0.0153,-0.0222,-0.0223,0,0,0,0,0,0,-0.0031,-0.0039,-0.0063,-0.0066,-0.0046,-0.0075,-0.0077,-0.0077,-0.0103,-0.0106,-0.0087,-0.0086,-0.0127,-0.0132,-0.0136,-0.016,-0.015,-0.0153,-0.0154,-0.0222,-0.0222,-0.0223,0,0,0,0,0,0,-0.003,-0.0033,-0.0062,-0.0054,-0.0059,-0.0076,-0.0076,-0.0078,-0.0091,-0.0108,-0.0111,-0.0097,-0.0127,-0.0133,-0.0155,-0.0162,-0.0154,-0.0156,-0.0222,-0.0222,-0.0223,-0.0216,0,0,0,0,0,0,-0.0029,-0.0032,-0.0034,-0.0054,-0.0059,-0.0088,-0.0077,-0.008,-0.0096,-0.0095,-0.0118,-0.0121,-0.0127,-0.0151,-0.0158,-0.0165,-0.0158,-0.0221,-0.0222,-0.0223,-0.0216,-0.0216,-0.0217,0,0,0,0,0,-0.0028,-0.0039,-0.0034,-0.0037,-0.006,-0.0089,-0.0094,-0.0103,-0.0097,-0.011,-0.0115,-0.012,-0.0159,-0.0154,-0.0161,-0.0169,-0.0221,-0.0222,-0.0222,-0.0216,-0.0216,-0.0217,0,0,0,0,0,0,-0.0025,-0.004,-0.0035,-0.0049,-0.0067,-0.0089,-0.0105,-0.0109,-0.0124,-0.0122,-0.013,-0.0135,-0.0153,-0.0166,-0.016,-0.0191,-0.019,-0.0192,-0.0182,-0.0183,-0.0183,-0.0175,-0.016,0,0,0,0,0,-0.0025,-0.0037,-0.0052,-0.0064,-0.0073,-0.0089,-0.0102,-0.0108,-0.0123,-0.0129,-0.0142,-0.0153,-0.0164,-0.0176,-0.019,-0.0217,-0.0218,-0.0225,-0.0225,-0.0226,-0.0224,-0.0227,-0.0228,-0.0225,-0.0225,-0.0225,0,0,-0.0028,-0.0038,-0.0045,-0.0064,-0.0079,-0.0095,-0.0095,-0.012,-0.0126,-0.0133,-0.015,-0.0158,-0.017,-0.0188,-0.0199,-0.0201,-0.0228,-0.0227,-0.0227,-0.0225,-0.0228,-0.0228,-0.0228,-0.0226,-0.0226,-0.0226,0,0,-0.0047,-0.0048,-0.0065,-0.0079,-0.0102,-0.0109,-0.0116,-0.0138,-0.0142,-0.0162,-0.0158,-0.0169,-0.0199,-0.0201,-0.0206,-0.0222,-0.0227,-0.023,-0.0231,-0.0234,-0.0234,-0.0234,-0.0239,-0.0239,-0.0233,-0.0233,-0.0233,0,-0.005,-0.0064,-0.0077,-0.0095,-0.0102,-0.0114,-0.0127,-0.0139,-0.0162,-0.0162,-0.0167,-0.0187,-0.0202,-0.0207,-0.0211,-0.0223,-0.0225,-0.0227,-0.0234,-0.0234,-0.0234,-0.0239,-0.0239,-0.0233,-0.0233,-0.0233,-0.0233,0,-0.0078,-0.0087,-0.0101,-0.0117,-0.0129,-0.0147,-0.0155,-0.0164,-0.0167,-0.0172,-0.0181,-0.0196,-0.0204,-0.0213,-0.022,-0.0227,-0.0229,-0.023,-0.023,-0.0234,-0.0239,-0.0239,-0.0233,-0.0233,-0.0233,-0.0233,0,0,-0.009,-0.0115,-0.0118,-0.0118,-0.0138,-0.0147,-0.0157,-0.0164,-0.0157,-0.018,-0.0172,-0.0197,-0.0199,-0.0205,-0.0213,-0.0222,-0.023,-0.0229,-0.023,-0.0229,-0.0239,-0.0234,-0.0234,-0.0232,-0.0232,-0.0232,-0.0243,0,-0.0106,-0.0131,-0.0139,-0.015,-0.0159,-0.016,-0.0162,-0.0166,-0.0167,-0.0164,-0.0175,-0.0175,-0.0197,-0.0196,-0.021,-0.0216,-0.0232,-0.0227,-0.024,-0.024,-0.0231,-0.0235,-0.0232,-0.0243,-0.0244,-0.0244,-0.0244,0,-0.0128,-0.0137,-0.0152,-0.0149,-0.0151,-0.0157,-0.0144,-0.0148,-0.0145,-0.0145,-0.0149,-0.0152,-0.0163,-0.0181,-0.0204,-0.02,-0.0224,-0.0236,-0.0236,-0.0233,-0.0236,-0.0239,-0.0245,-0.0245,-0.0245,-0.0245,-0.0245,0,-0.0123,-0.0142,-0.0147,-0.015,-0.0154,-0.0151,-0.0149,-0.0143,-0.0128,-0.0129,-0.0111,-0.0132,-0.0125,-0.016,-0.0188,-0.0197,-0.021,-0.0223,-0.0244,-0.0244,-0.0248,-0.0248,-0.0249,-0.0249,-0.0249,-0.0249,-0.0249,0,-0.0131,-0.0135,-0.0144,-0.0146,-0.0136,-0.0142,-0.0125,-0.0123,-0.0107,-0.0075,-0.0099,-0.0072,-0.0119,-0.0127,-0.0173,-0.0203,-0.02,-0.0243,-0.0246,-0.0246,-0.0245,-0.0248,-0.0248,-0.025,-0.025,-0.0249,-0.0249,0,-0.0127,-0.0138,-0.0139,-0.014,-0.0135,-0.0128,-0.0104,-0.0085,-0.0076,-0.0032,-0.0026,-0.0022,-0.0033,-0.008,-0.0125,-0.017,-0.0209,-0.0226,-0.0217,-0.0219,-0.0249,-0.0249,-0.0254,-0.0254,-0.0254,-0.0253,-0.0253,0,-0.0127,-0.0131,-0.0128,-0.0118,-0.0118,-0.0105,-0.0086,-0.0074,-0.0041,0.0009,0.0041,0.0042,0.0036,-0.001,-0.0083,-0.0171,-0.0191,-0.0222,-0.0249,-0.0247,-0.0249,-0.0249,-0.0248,-0.0253,-0.0253,-0.0253,-0.0253,0,-0.0119,-0.0121,-0.0117,-0.0099,-0.0082,-0.0055,-0.0024,0.0006,0.0041,0.0052,0.0115,0.009,0.0079,0.0014,-0.0053,-0.012,-0.0207,-0.0222,-0.0223,-0.0249,-0.0247,-0.0249,-0.0248,-0.0253,-0.0253,-0.0253,-0.0253,0,-0.0106,-0.01,-0.0092,-0.0073,-0.0048,-0.0004,0.0006,0.0058,0.009,0.0147,0.0168,0.0149,0.0134,0.0041,-0.0018,-0.0085,-0.0116,-0.0155,-0.016,-0.0162,-0.014,-0.0124,-0.0092,0,0,0,0,0,-0.0091,-0.0079,-0.0061,-0.0034,-0.0007,0.0008,0.0056,0.0069,0.0108,0.0163,0.017,0.0163,0.0092,0.0061,-0.0003,-0.0045,-0.0149,-0.0127,-0.0201,-0.0251,-0.0252,-0.0243,0,0,0,0,0,0,-0.0079,-0.0065,-0.0057,-0.0004,0.0021,0.0059,0.0088,0.0113,0.0147,0.0176,0.0146,0.0133,0.0063,0.0136,-0.0005,-0.0027,-0.0088,-0.0162,-0.0164,-0.0251,-0.0251,-0.0252,-0.0242,0,0,0,0,0]}]]